Location: Bli��� Lhota
(48.7570°N, 14.0120°E)
Time: 08:37:20
(UTC+00:00)

SPOT 3 Rocket - Pass Details

Date: 18 September 2020
Orbit: 780 x 794 km, 98.8° (Epoch: 24 October)

Event Time Altitude Azimuth Distance (km) Brightness Sun altitude
Exits shadow 18:22:58 18° 116° (ESE) 1,860 4.9 -12.7°
Maximum altitude 18:26:05 33° 63° (ENE) 1,303 4.3 -13.2°
Drops below altitude 10° 18:30:38 10° 2° (N) 2,346 6.2 -13.9°
Sets 18:33:09 0° 353° (N) 3,279 7.1 -14.3°
